STARLINK-30097 (56303 NORAD) Tracking and Keplerian Element Data

This shows tracking and keplerian element data for the satellite.

Feedback or suggestion? Click here.




ElementValue
Catalog56303
NameSTARLINK-30097
Epoch Orbit325
Epoch Day127.25001157
Epoch Year2023
RAAN97.2579
Inclination43.0024
Eccentricity0.0001242
Argument of Perigee265.7584
Mean Anonmoly329.5706
Mean Motion15.51909622
Decay Rate-0.00637418
L11 56303U 23056T 23127.25001157 -.00637418 00000+0 -11222-1 0 9998
L22 56303 43.0024 97.2579 0001242 265.7584 329.5706 15.51909622 3259



Live tracking and technical data element details for STARLINK-30097 (NORAD 56303). STARLINK-30097 can be tracked NOW for your location showing map with azimuth and elevation plus other details from your city location.







IsCatalogInMostPopularTable: catalog: 56303, numindb: 5
Update: records affected: 1



GetName: 56303 STARLINK-30097

Hit Count: updated at: Wed, 07 Jun 2023 09:36:31 GMT